Change the Weather History Date:

Friday, July 26, 2013

  Actual Average Record
Temperature  
Mean Temperature 52 °F -  
Max Temperature 55 °F 73 °F 87 °F (2010)
Min Temperature 48 °F 51 °F 8 °F (2001)
Degree Days  
Heating Degree Days 14    
Growing Degree Days 2 (Base 50)    
Moisture  
Dew Point 51 °F    
Average Humidity 97    
Maximum Humidity 100    
Minimum Humidity 93    
Precipitation  
Precipitation 0.26 in - - ()
Sea Level Pressure  
Sea Level Pressure 30.05 in    
Wind  
Wind Speed 4 mph (North)    
Max Wind Speed 13 mph    
Max Gust Speed 22 mph    
Visibility 9 miles    
Events Rain , Thunderstorm    
Averages and records for this station are not official NWS values.
T = Trace of Precipitation, MM = Missing Value Source: NWS Daily Summary

Daily Weather History Graph

Daily Weather History Graph

Search for Another Location

Airport or City:

Trip Planner

Search our weather history database for the weather conditions in past years. The results will help you decide how hot, cold, wet, or windy it might be!

Date:

Astronomy

Jul. 26, 2013 Rise Set
Actual Time 5:37 AM CDT 8:54 PM CDT
Civil Twilight 5:00 AM CDT 9:31 PM CDT
Nautical Twilight 4:10 AM CDT 10:20 PM CDT
Astronomical Twilight 3:06 AM CDT 11:23 PM CDT
Moon 10:38 PM CDT (7/26) 10:42 AM CDT (7/26)
Length of Visible Light 16h 31m
Length of Day
15h 16m
Waning Gibbous, 80% of the Moon is Illuminated
Jul 26
Waning Gibbous
Jul 29
Last Quarter
Aug 6
New
Aug 14
First Quarter
Aug 20
Full

Hourly Weather History & Observations

Time (CDT) Temp. Dew Point Humidity Pressure Visibility Wind Dir Wind Speed Gust Speed Precip Events Conditions
12:13 AM 53.6 °F 53.6 °F 100% 29.91 in 10.0 mi Calm Calm - N/A Rain , Thunderstorm Rain
12:33 AM 53.6 °F 51.8 °F 94% 29.91 in 4.0 mi Calm Calm - 0.01 in Rain , Thunderstorm Rain
12:53 AM 53.6 °F 51.8 °F 94% 29.90 in 10.0 mi Calm Calm - 0.01 in Rain Light Rain
1:13 AM 53.6 °F 51.8 °F 94% 29.90 in 10.0 mi Calm Calm - N/A   Overcast
1:33 AM 53.6 °F 51.8 °F 94% 29.90 in 7.0 mi Calm Calm - N/A   Overcast
1:53 AM 55.4 °F 53.6 °F 94% 29.90 in 10.0 mi NNW 4.6 mph - N/A Rain Light Rain
2:13 AM 55.4 °F 55.4 °F 100% 29.89 in 10.0 mi North 5.8 mph - 0.01 in Rain Light Rain
2:33 AM 55.4 °F 55.4 °F 100% 29.89 in 10.0 mi NNW 4.6 mph - 0.01 in Rain Light Rain
2:53 AM 55.4 °F 55.4 °F 100% 29.89 in 7.0 mi North 6.9 mph - 0.12 in Rain , Thunderstorm Heavy Thunderstorms and Rain
3:13 AM 55.4 °F 53.6 °F 94% 29.88 in 10.0 mi NNE 3.5 mph - 0.01 in Rain Light Rain
3:33 AM 55.4 °F 53.6 °F 94% 29.90 in 10.0 mi NNE 3.5 mph - 0.01 in   Light Drizzle
3:53 AM 53.6 °F 53.6 °F 100% 29.90 in 7.0 mi Calm Calm - 0.02 in Rain Rain
4:13 AM 53.6 °F 53.6 °F 100% 29.90 in 7.0 mi NNE 3.5 mph - 0.02 in Rain Rain
4:33 AM 53.6 °F 51.8 °F 94% 29.91 in 10.0 mi NE 6.9 mph - 0.03 in Rain Light Rain
4:53 AM 53.6 °F 51.8 °F 94% 29.91 in 10.0 mi North 4.6 mph - 0.03 in Thunderstorm Overcast
5:13 AM 51.8 °F 51.8 °F 100% 29.92 in 10.0 mi North 5.8 mph - N/A Rain Light Rain
5:33 AM 51.8 °F 51.8 °F 100% 29.92 in 10.0 mi NNE 5.8 mph - N/A   Light Drizzle
5:53 AM 51.8 °F 51.8 °F 100% 29.93 in 10.0 mi NNE 5.8 mph - 0.01 in Rain Light Rain
6:13 AM 51.8 °F 50.0 °F 94% 29.94 in 10.0 mi North 3.5 mph - 0.01 in Rain Light Rain
6:33 AM 51.8 °F 50.0 °F 94% 29.95 in 10.0 mi NNE 5.8 mph - 0.02 in Rain , Thunderstorm Light Thunderstorms and Rain
6:53 AM 51.8 °F 50.0 °F 94% 29.96 in 10.0 mi NNE 6.9 mph - 0.03 in Thunderstorm Drizzle
7:13 AM 50.0 °F 48.2 °F 94% 29.97 in 10.0 mi NNE 6.9 mph - N/A Thunderstorm Unknown
7:33 AM 50.0 °F 48.2 °F 94% 29.98 in 7.0 mi NNE 5.8 mph - 0.01 in Rain Rain
7:53 AM 50.0 °F 48.2 °F 94% 29.99 in 7.0 mi North 5.8 mph - 0.02 in Rain , Thunderstorm Light Thunderstorms and Rain
8:13 AM 50.0 °F 48.2 °F 94% 30.00 in 5.0 mi NNW 8.1 mph - 0.01 in Rain Rain
8:33 AM 50.0 °F 48.2 °F 94% 30.00 in 3.0 mi North 8.1 mph - 0.01 in Thunderstorm Unknown
8:53 AM 50.0 °F 50.0 °F 100% 30.01 in 10.0 mi North 9.2 mph - 0.01 in   Overcast
9:13 AM 50.0 °F 50.0 °F 100% 30.02 in 10.0 mi NNE 6.9 mph 16.1 mph N/A   Overcast
9:33 AM 51.8 °F 50.0 °F 94% 30.03 in 10.0 mi North 6.9 mph - N/A   Light Drizzle
9:53 AM 51.8 °F 50.0 °F 94% 30.04 in 10.0 mi NNE 6.9 mph - N/A   Overcast
10:13 AM 51.8 °F 51.8 °F 100% 30.04 in 10.0 mi NNE 6.9 mph 16.1 mph N/A   Overcast
10:33 AM 51.8 °F 51.8 °F 100% 30.06 in 10.0 mi North 4.6 mph - N/A Rain Light Rain
10:53 AM 51.8 °F 51.8 °F 100% 30.06 in 7.0 mi NE 3.5 mph - N/A   Overcast
11:13 AM 53.6 °F 53.6 °F 100% 30.06 in 10.0 mi NE 6.9 mph - N/A   Overcast
11:33 AM 51.8 °F 50.0 °F 94% 30.08 in 3.0 mi North 6.9 mph - 0.01 in   Heavy Drizzle
11:53 AM 51.8 °F 51.8 °F 100% 30.08 in 10.0 mi North 6.9 mph - 0.01 in   Overcast
12:13 PM 51.8 °F 50.0 °F 94% 30.09 in 7.0 mi North 6.9 mph - N/A   Overcast
12:33 PM 51.8 °F 51.8 °F 100% 30.09 in 10.0 mi North 8.1 mph - N/A Rain Light Rain
12:53 PM 51.8 °F 50.0 °F 94% 30.10 in 10.0 mi North 12.7 mph 18.4 mph N/A   Overcast
1:13 PM 51.8 °F 51.8 °F 100% 30.11 in 10.0 mi North 9.2 mph - N/A   Overcast
1:33 PM 51.8 °F 51.8 °F 100% 30.11 in 10.0 mi North 8.1 mph 18.4 mph N/A   Overcast
1:53 PM 51.8 °F 51.8 °F 100% 30.12 in 10.0 mi North 6.9 mph 18.4 mph N/A   Overcast
2:13 PM 51.8 °F 51.8 °F 100% 30.13 in 10.0 mi North 5.8 mph - N/A   Overcast
2:33 PM 51.8 °F 51.8 °F 100% 30.13 in 7.0 mi North 5.8 mph 16.1 mph N/A Rain Light Rain
2:53 PM 51.8 °F 51.8 °F 100% 30.13 in 10.0 mi North 3.5 mph - N/A   Overcast
3:13 PM 51.8 °F 50.0 °F 94% 30.13 in 10.0 mi North 8.1 mph 16.1 mph N/A Rain Light Rain
3:33 PM 50.0 °F 50.0 °F 100% 30.13 in 10.0 mi North 5.8 mph - N/A   Overcast
3:53 PM 51.8 °F 50.0 °F 94% 30.14 in 7.0 mi North 5.8 mph 16.1 mph N/A Rain Light Rain
4:13 PM 50.0 °F 48.2 °F 94% 30.14 in 10.0 mi North 6.9 mph - N/A   Overcast
4:33 PM 50.0 °F 50.0 °F 100% 30.14 in 10.0 mi North 5.8 mph - N/A   Overcast
4:53 PM 51.8 °F 50.0 °F 94% 30.14 in 7.0 mi NNW 6.9 mph - N/A   Overcast
5:13 PM 50.0 °F 50.0 °F 100% 30.15 in 7.0 mi North 11.5 mph 21.9 mph N/A   Overcast
5:33 PM 50.0 °F 50.0 °F 100% 30.14 in 10.0 mi North 6.9 mph 16.1 mph N/A   Overcast
5:53 PM 51.8 °F 50.0 °F 94% 30.14 in 10.0 mi North 6.9 mph - N/A   Overcast
6:13 PM 51.8 °F 51.8 °F 100% 30.14 in 10.0 mi North 8.1 mph - N/A   Overcast
6:33 PM 50.0 °F 48.2 °F 94% 30.15 in 10.0 mi North 5.8 mph 16.1 mph N/A   Overcast
6:53 PM 50.0 °F 48.2 °F 94% 30.15 in 10.0 mi North 8.1 mph - N/A   Overcast
7:13 PM 48.2 °F 48.2 °F 100% 30.16 in 4.0 mi NNW 6.9 mph 16.1 mph N/A   Drizzle
7:33 PM 48.2 °F 48.2 °F 100% 30.16 in 10.0 mi NNW 5.8 mph - N/A   Overcast
7:53 PM 48.2 °F 48.2 °F 100% 30.16 in 10.0 mi North 5.8 mph - N/A   Overcast
8:13 PM 48.2 °F 48.2 °F 100% 30.16 in 10.0 mi NNW 5.8 mph - N/A   Overcast
8:33 PM 48.2 °F 48.2 °F 100% 30.15 in 10.0 mi NNW 5.8 mph - N/A   Overcast
8:53 PM 48.2 °F 48.2 °F 100% 30.15 in 10.0 mi NNW 8.1 mph - N/A   Overcast
9:13 PM 48.2 °F 48.2 °F 100% 30.15 in 10.0 mi NNW 6.9 mph - N/A   Overcast
9:33 PM 48.2 °F 48.2 °F 100% 30.14 in 10.0 mi NNW 3.5 mph - N/A   Overcast
9:53 PM 50.0 °F 48.2 °F 94% 30.14 in 10.0 mi NNW 4.6 mph - N/A   Overcast
10:13 PM 50.0 °F 48.2 °F 94% 30.13 in 10.0 mi North 5.8 mph - N/A   Overcast
10:33 PM 50.0 °F 50.0 °F 100% 30.13 in 10.0 mi Calm Calm - N/A   Overcast
10:53 PM 50.0 °F 50.0 °F 100% 30.13 in 10.0 mi NNW 3.5 mph - N/A   Overcast
11:13 PM 48.2 °F 48.2 °F 100% 30.12 in 10.0 mi NNE 3.5 mph - N/A   Drizzle
11:33 PM 48.2 °F 48.2 °F 100% 30.12 in 10.0 mi Calm Calm - N/A   Overcast
11:53 PM 48.2 °F 46.4 °F 93% 30.12 in 5.0 mi Calm Calm - N/A   Drizzle